QPF
0.00 0.00 0.00 0.00 0.00 0.00 0.00 0.00 0.00 0.00 0.00 0.00 0.00 0.00 0.00 0.00 0.00 0.00 0.00 0.00 0.00 0.00 0.00 0.00 0.00 0.00 0.00 0.00 0.00 0.00 0.00 0.00 0.00 0.00 0.00 0.00 0.00 0.00 0.00 0.00 0.00 0.00 0.00
0.00 0.00 0.00 0.00 0.00 0.00 0.00 0.00 0.00 0.00 0.00 0.00 0.00 0.00 0.00 0.00 0.00 0.00 0.00 0.00 0.00 0.00 0.00 0.00 0.00 0.00 0.00 0.00 0.00 0.00 0.00 0.00 0.00 0.00 0.00 0.00 0.00 0.00 0.00 0.00 0.00 0.00 0.00
0.00 0.00 0.00 0.00 0.00 0.00 0.00 0.00 0.00 0.00 0.00 0.00 0.00 0.00 0.00 0.00 0.00 0.00 0.00 0.00 0.00 0.00 0.00 0.00 0.00 0.00 0.00 0.00 0.00 0.00 0.00 0.00 0.00 0.00 0.00 0.00 0.00 0.00 0.00 0.00 0.00 0.00 0.00
0.00 0.00 0.00 0.00 0.00 0.00 0.00 0.00 0.00 0.00 0.00 0.00 0.00 0.00 0.00 0.00 0.00 0.00 0.00 0.00 0.00 0.00 0.00 0.00 0.00 0.00 0.00 0.00 0.00 0.00 0.00 0.00 0.00 0.00 0.00 0.00 0.00 0.00 0.00 0.00 0.00 0.00 0.00
0.00 0.00 0.00 0.00 0.00 0.00 0.00 0.00 0.00 0.00 0.00 0.00 0.00 0.00 0.00 0.00 0.00 0.00 0.00 0.00 0.00 0.00 0.00 0.00 0.00 0.00 0.00 0.00 0.00 0.00 0.00 0.00 0.00 0.00 0.00 0.00 0.00 0.00 0.00 0.00 0.00 0.00 0.00
0.00 0.00 0.00 0.00 0.00 0.00 0.00 0.00 0.00 0.00 0.00 0.00 0.00 0.00 0.00 0.00 0.00 0.00 0.00 0.00 0.00 0.00 0.00 0.00 0.00 0.00 0.00 0.01 0.02 0.01 0.00 0.00 0.00 0.00 0.00 0.00 0.00 0.00 0.00 0.00 0.00 0.00 0.00
0.00 0.00 0.00 0.00 0.00 0.00 0.00 0.00 0.00 0.00 0.00 0.00 0.00 0.00 0.00 0.00 0.00 0.00 0.00 0.00 0.00 0.00 0.00 0.00 0.00 0.00 0.00 0.02 0.09 0.08 0.01 0.00 0.00 0.00 0.00 0.00 0.00 0.00 0.01 0.01 0.01 0.00 0.00
0.00 0.00 0.00 0.00 0.00 0.00 0.00 0.00 0.00 0.00 0.00 0.00 0.00 0.00 0.00 0.00 0.00 0.00 0.00 0.00 0.00 0.00 0.00 0.00 0.00 0.00 0.00 0.00 0.08 0.06 0.04 0.01 0.00 0.00 0.00 0.00 0.03 0.03 0.02 0.01 0.01 0.03 0.02
0.00 0.00 0.00 0.00 0.00 0.00 0.00 0.00 0.00 0.00 0.00 0.00 0.00 0.00 0.00 0.00 0.00 0.00 0.00 0.00 0.00 0.00 0.00 0.00 0.00 0.00 0.00 0.02 0.04 0.02 0.01 0.00 0.01 0.02 0.00 0.02 0.03 0.02 0.00 0.01 0.01 0.02 0.01
0.00 0.00 0.00 0.00 0.00 0.00 0.00 0.00 0.00 0.00 0.00 0.00 0.00 0.00 0.00 0.00 0.00 0.00 0.00 0.00 0.00 0.00 0.00 0.00 0.00 0.00 0.00 0.01 0.01 0.01 0.01 0.01 0.00 0.01 0.00 0.00 0.00 0.00 0.00 0.00 0.03 0.02 0.01
0.00 0.00 0.00 0.00 0.00 0.00 0.00 0.00 0.00 0.00 0.00 0.00 0.00 0.00 0.00 0.00 0.00 0.00 0.00 0.01 0.00 0.00 0.00 0.00 0.00 0.00 0.01 0.04 0.08 0.08 0.06 0.01 0.00 0.00 0.00 0.00 0.00 0.00 0.00 0.00 0.00 0.00 0.00
0.00 0.00 0.00 0.00 0.00 0.00 0.00 0.00 0.00 0.00 0.00 0.00 0.01 0.00 0.00 0.00 0.00 0.00 0.00 0.00 0.02 0.02 0.05 0.03 0.03 0.03 0.08 0.18 0.18 0.15 0.12 0.03 0.00 0.01 0.01 0.00 0.00 0.00 0.00 0.00 0.00 0.00 0.00
0.00 0.00 0.00 0.00 0.00 0.00 0.00 0.00 0.00 0.00 0.00 0.00 0.00 0.00 0.00 0.00 0.00 0.00 0.00 0.00 0.00 0.04 0.20 0.18 0.24 0.22 0.15 0.13 0.10 0.08 0.07 0.01 0.02 0.03 0.01 0.00 0.00 0.00 0.00 0.00 0.00 0.00 0.00
0.00 0.00 0.00 0.00 0.00 0.00 0.00 0.00 0.00 0.00 0.00 0.00 0.00 0.00 0.00 0.00 0.00 0.00 0.00 0.01 0.01 0.03 0.20 0.32 0.27 0.20 0.11 0.06 0.06 0.08 0.11 0.05 0.03 0.01 0.00 0.00 0.00 0.00 0.00 0.00 0.00 0.00 0.00
0.00 0.00 0.00 0.00 0.00 0.00 0.00 0.00 0.00 0.00 0.00 0.00 0.00 0.01 0.00 0.00 0.00 0.00 0.01 0.04 0.01 0.03 0.14 0.11 0.08 0.07 0.04 0.03 0.05 0.08 0.10 0.06 0.02 0.01 0.00 0.00 0.00 0.00 0.00 0.00 0.00 0.00 0.00
0.00 0.00 0.00 0.00 0.00 0.00 0.00 0.00 0.00 0.00 0.00 0.00 0.00 0.00 0.00 0.00 0.00 0.00 0.01 0.09 0.05 0.01 0.05 0.03 0.03 0.01 0.01 0.01 0.05 0.09 0.09 0.07 0.02 0.00 0.00 0.00 0.00 0.00 0.00 0.00 0.00 0.00 0.00
0.00 0.00 0.00 0.00 0.00 0.00 0.00 0.00 0.00 0.00 0.00 0.00 0.00 0.00 0.01 0.00 0.00 0.00 0.02 0.03 0.02 0.02 0.03 0.02 0.01 0.00 0.01 0.04 0.06 0.06 0.06 0.06 0.01 0.00 0.00 0.00 0.00 0.00 0.00 0.00 0.00 0.00 0.00
0.00 0.00 0.00 0.00 0.00 0.00 0.00 0.00 0.00 0.00 0.00 0.00 0.00 0.00 0.00 0.00 0.00 0.00 0.01 0.00 0.00 0.00 0.00 0.01 0.01 0.00 0.02 0.05 0.03 0.02 0.01 0.01 0.00 0.00 0.00 0.00 0.00 0.00 0.00 0.00 0.00 0.00 0.00
0.00 0.00 0.00 0.00 0.00 0.00 0.00 0.00 0.00 0.00 0.00 0.00 0.00 0.00 0.00 0.00 0.00 0.00 0.00 0.00 0.00 0.02 0.02 0.03 0.03 0.03 0.08 0.06 0.02 0.01 0.00 0.00 0.00 0.00 0.00 0.00 0.00 0.00 0.00 0.00 0.00 0.00 0.00
0.00 0.00 0.00 0.00 0.00 0.00 0.00 0.00 0.00 0.00 0.00 0.00 0.00 0.00 0.00 0.00 0.00 0.00 0.00 0.01 0.00 0.01 0.01 0.05 0.05 0.06 0.08 0.04 0.00 0.00 0.00 0.00 0.00 0.00 0.00 0.00 0.00 0.00 0.00 0.00 0.00 0.00 0.00
0.00 0.00 0.00 0.00 0.00 0.00 0.00 0.00 0.00 0.00 0.00 0.00 0.00 0.00 0.00 0.00 0.00 0.00 0.01 0.03 0.02 0.01 0.01 0.02 0.02 0.02 0.01 0.00 0.00 0.00 0.00 0.00 0.00 0.00 0.00 0.00 0.00 0.00 0.00 0.00 0.00 0.00 0.00
0.00 0.00 0.00 0.00 0.00 0.00 0.00 0.00 0.00 0.00 0.00 0.00 0.00 0.00 0.00 0.00 0.00 0.01 0.02 0.01 0.00 0.00 0.00 0.00 0.00 0.00 0.00 0.00 0.00 0.00 0.00 0.00 0.00 0.00 0.00 0.00 0.00 0.00 0.00 0.00 0.00 0.00 0.00
0.00 0.00 0.00 0.00 0.00 0.00 0.00 0.00 0.00 0.00 0.00 0.00 0.00 0.00 0.00 0.00 0.00 0.00 0.00 0.00 0.00 0.00 0.00 0.00 0.00 0.00 0.00 0.00 0.00 0.00 0.00 0.00 0.00 0.00 0.00 0.00 0.00 0.00 0.00 0.00 0.00 0.00 0.00
0.00 0.00 0.00 0.00 0.00 0.00 0.00 0.00 0.00 0.00 0.00 0.00 0.00 0.00 0.00 0.00 0.00 0.00 0.00 0.00 0.00 0.00 0.00 0.00 0.00 0.00 0.00 0.00 0.00 0.00 0.00 0.00 0.00 0.00 0.00 0.00 0.00 0.00 0.00 0.00 0.00 0.00 0.00
0.00 0.00 0.00 0.00 0.00 0.00 0.00 0.00 0.00 0.00 0.00 0.00 0.00 0.00 0.00 0.00 0.00 0.00 0.00 0.00 0.00 0.00 0.00 0.00 0.00 0.00 0.00 0.00 0.00 0.00 0.00 0.00 0.00 0.00 0.00 0.00 0.00 0.00 0.00 0.00 0.00 0.00 0.00
0.00 0.00 0.01 0.01 0.01 0.00 0.00 0.00 0.00 0.00 0.00 0.01 0.00 0.00 0.00 0.00 0.00 0.00 0.00 0.00 0.00 0.00 0.00 0.00 0.00 0.00 0.00 0.00 0.00 0.00 0.00 0.00 0.00 0.00 0.00 0.00 0.00 0.00 0.00 0.00 0.00 0.00 0.00
MSLP
1006.31 1006.87 1007.64 1008.20 1008.92 1009.59 1009.99 1010.36 1010.82 1011.30 1011.71 1012.23 1012.56 1013.19 1013.59 1013.99 1014.48 1014.89 1015.10 1015.16 1015.87 1016.24 1016.44 1016.66 1017.15 1017.10 1017.00 1017.14 1017.38 1017.47 1017.39 1017.28 1016.93 1016.82 1017.55 1018.06 1018.74 1018.84 1018.52 1019.01 1019.04 1019.26 1019.16
1004.89 1005.69 1006.21 1006.88 1007.58 1008.07 1008.56 1009.10 1009.75 1010.26 1010.87 1011.36 1011.86 1012.31 1012.67 1013.08 1013.60 1014.03 1014.32 1014.33 1014.90 1015.39 1015.80 1016.19 1016.55 1016.80 1017.02 1017.01 1017.06 1017.35 1017.27 1017.30 1017.21 1017.16 1017.23 1017.85 1018.42 1018.36 1018.61 1018.68 1018.44 1018.25 1018.59
1003.63 1004.48 1005.21 1005.65 1006.14 1006.59 1007.21 1007.93 1008.45 1009.05 1009.66 1010.26 1010.81 1011.21 1011.63 1012.05 1012.48 1012.92 1013.23 1013.55 1013.83 1014.50 1014.93 1015.40 1015.83 1016.28 1016.67 1016.55 1016.96 1016.86 1017.05 1017.42 1017.81 1017.47 1016.91 1017.38 1017.61 1018.07 1018.41 1018.77 1018.77 1018.42 1018.41
1002.00 1003.03 1003.61 1004.23 1004.55 1005.14 1006.11 1006.77 1007.41 1008.01 1008.59 1009.09 1009.59 1010.09 1010.46 1010.92 1011.40 1011.80 1012.36 1012.74 1012.98 1013.36 1013.99 1014.44 1014.94 1015.41 1015.96 1016.38 1016.48 1016.69 1016.62 1016.79 1017.04 1017.11 1016.99 1016.74 1017.18 1017.58 1018.15 1017.85 1017.79 1018.30 1017.69
1000.60 1001.35 1001.96 1002.85 1003.68 1004.50 1005.18 1005.85 1006.54 1007.01 1007.41 1007.83 1008.33 1008.84 1009.28 1009.68 1010.06 1010.64 1011.03 1011.37 1011.71 1012.29 1012.88 1013.31 1013.86 1014.39 1014.97 1015.26 1015.43 1015.88 1016.14 1016.37 1015.93 1016.15 1016.31 1016.36 1016.56 1017.16 1017.49 1017.34 1017.41 1017.44 1017.44
999.36 999.94 1000.83 1001.96 1002.78 1003.33 1004.11 1004.85 1005.58 1005.99 1006.46 1007.00 1007.20 1007.60 1007.96 1008.04 1008.24 1009.07 1009.67 1010.01 1010.49 1011.23 1011.70 1012.27 1012.89 1013.49 1014.05 1014.81 1015.40 1015.67 1016.16 1016.26 1016.03 1015.10 1015.26 1015.54 1016.01 1016.60 1017.15 1017.09 1017.21 1017.15 1016.94
998.79 999.49 1000.32 1001.16 1001.80 1002.48 1003.32 1004.04 1004.26 1004.71 1005.51 1005.75 1006.13 1006.40 1006.55 1007.06 1007.30 1007.98 1008.87 1009.43 1009.57 1009.80 1010.53 1011.07 1011.75 1012.35 1013.57 1014.36 1015.19 1015.99 1016.02 1015.50 1015.28 1014.97 1014.82 1015.62 1015.78 1016.15 1016.86 1017.03 1017.45 1017.44 1017.31
998.06 998.83 999.55 1000.20 1000.95 1001.82 1002.46 1002.60 1003.06 1003.72 1004.06 1004.42 1004.74 1005.22 1005.66 1005.66 1006.38 1007.13 1008.05 1008.77 1008.60 1009.07 1009.87 1010.29 1010.63 1011.05 1011.86 1012.85 1013.41 1013.29 1013.53 1014.58 1015.20 1015.44 1014.49 1014.51 1015.43 1015.91 1016.40 1016.78 1017.14 1017.42 1017.53
997.20 997.58 998.25 999.22 999.97 1000.61 1001.02 1001.28 1002.26 1003.21 1003.71 1004.28 1004.66 1004.89 1005.27 1005.93 1006.59 1007.46 1008.29 1008.10 1008.08 1008.13 1008.54 1008.59 1009.41 1010.20 1010.48 1011.54 1011.80 1012.59 1013.14 1013.05 1013.63 1014.95 1015.25 1014.69 1015.05 1015.93 1015.96 1016.60 1016.67 1016.92 1016.89
995.68 996.09 997.34 998.07 998.86 999.29 999.93 1001.00 1001.61 1002.19 1002.63 1003.00 1003.26 1003.61 1004.16 1004.96 1005.76 1007.00 1008.27 1008.82 1008.91 1009.38 1008.82 1007.94 1007.63 1008.01 1008.84 1009.19 1010.72 1011.86 1012.12 1012.80 1013.85 1014.16 1015.21 1015.14 1015.03 1015.94 1016.43 1016.39 1016.33 1016.38 1016.13
995.07 995.84 996.65 997.36 998.01 998.73 999.50 1000.15 1000.82 1001.33 1001.67 1002.13 1002.04 1002.56 1002.93 1003.58 1003.89 1004.37 1006.13 1007.35 1007.06 1007.14 1007.48 1006.30 1006.77 1007.67 1008.30 1008.80 1009.55 1010.17 1010.66 1010.86 1012.73 1013.86 1014.47 1014.54 1014.19 1014.43 1015.37 1016.11 1015.84 1015.27 1015.35
994.49 995.07 995.70 996.52 997.28 997.87 998.72 999.51 1000.09 1000.66 1001.00 1000.95 1001.06 1000.95 1000.96 999.15 1000.48 1000.75 1002.40 1005.15 1005.89 1006.10 1005.69 1005.74 1006.37 1007.10 1008.20 1010.72 1011.02 1009.32 1008.46 1010.64 1011.73 1012.88 1013.42 1013.98 1013.15 1013.64 1014.09 1014.84 1015.31 1015.42 1015.59
993.96 994.44 995.09 995.88 996.58 997.16 998.02 998.81 999.47 1000.07 999.92 1000.18 1000.31 1000.21 1000.49 1001.00 999.75 1001.61 1002.29 1003.96 1004.72 1005.39 1004.85 1005.07 1005.95 1006.93 1008.07 1009.49 1009.84 1011.09 1006.64 1010.39 1011.56 1012.03 1012.62 1012.94 1012.87 1012.79 1013.32 1014.84 1015.22 1015.73 1016.36
993.57 994.08 994.65 995.18 995.91 996.65 997.39 998.34 998.76 998.89 999.16 999.16 999.16 999.35 999.85 999.47 1000.48 1001.03 1002.17 1003.65 1004.69 1005.22 1005.51 1005.82 1006.00 1006.59 1007.08 1007.60 1008.76 1008.53 1010.08 1012.04 1011.97 1011.04 1012.17 1011.97 1012.22 1012.61 1013.55 1014.15 1014.24 1015.26 1015.50
993.08 993.47 994.15 994.47 995.34 996.08 997.10 998.19 998.37 998.64 998.70 998.47 998.55 998.70 999.02 999.58 1000.46 1000.78 1001.72 1003.11 1003.97 1004.43 1004.93 1005.41 1005.89 1006.37 1007.21 1007.43 1006.99 1006.94 1006.28 1009.09 1011.14 1010.71 1010.89 1011.14 1011.58 1012.34 1012.78 1013.06 1013.58 1014.35 1014.90
992.81 993.50 993.80 993.83 994.85 995.69 997.17 998.91 1000.25 1000.27 999.84 999.70 999.06 998.95 999.64 1000.41 1001.09 1001.47 1001.88 1002.41 1003.16 1004.11 1004.33 1004.77 1005.37 1005.52 1006.09 1006.67 1006.91 1007.66 1007.96 1007.95 1009.30 1009.75 1010.00 1010.42 1010.89 1011.80 1012.07 1012.71 1013.64 1014.23 1014.24
993.27 993.99 994.42 994.91 995.66 996.24 996.91 997.93 999.57 1000.65 1000.42 1000.66 1000.97 1000.91 1000.84 1001.45 1001.94 1002.32 1002.58 1003.03 1003.73 1004.31 1004.39 1004.72 1004.49 1005.27 1005.87 1006.66 1007.25 1007.38 1007.36 1008.52 1008.74 1008.99 1009.30 1009.81 1010.33 1010.94 1011.76 1012.77 1013.60 1013.77 1014.00
994.74 994.94 994.79 995.49 995.69 996.11 996.85 997.81 998.85 1000.02 1000.66 1001.62 1002.35 1002.60 1002.82 1003.05 1003.25 1003.58 1003.81 1004.32 1004.81 1005.02 1003.81 1003.90 1004.85 1005.73 1006.32 1006.90 1007.57 1007.79 1007.71 1007.43 1008.07 1008.42 1008.93 1009.66 1010.18 1010.47 1011.73 1012.31 1012.87 1013.41 1013.61
995.51 995.73 996.00 996.46 996.77 997.41 997.82 998.51 999.41 1000.13 1000.82 1001.71 1002.40 1002.78 1003.35 1003.80 1004.23 1004.26 1004.16 1003.91 1004.40 1004.71 1004.72 1005.16 1005.41 1005.91 1006.48 1006.61 1006.67 1006.59 1006.85 1007.08 1007.81 1008.17 1008.91 1009.44 1009.93 1010.35 1011.17 1011.79 1012.39 1013.04 1013.41
996.66 996.97 996.92 997.57 998.06 998.34 998.64 999.09 999.82 1000.30 1000.91 1001.51 1001.86 1001.94 1003.33 1003.98 1004.50 1004.95 1004.80 1004.52 1004.76 1004.73 1004.77 1005.20 1005.41 1005.73 1006.08 1006.20 1006.06 1006.18 1006.55 1007.38 1008.03 1008.28 1008.66 1009.06 1009.43 1010.14 1010.78 1011.57 1011.96 1012.60 1013.31
997.03 997.47 997.83 998.15 998.40 998.75 998.95 999.39 999.70 999.65 1000.17 1001.02 1001.56 1002.69 1003.18 1003.04 1003.75 1004.57 1004.09 1004.43 1004.40 1004.54 1004.95 1005.14 1005.03 1005.19 1005.33 1005.63 1005.94 1006.44 1006.77 1007.39 1007.60 1007.94 1008.22 1008.99 1009.67 1010.05 1010.60 1011.23 1011.59 1012.07 1012.13
997.15 997.50 997.82 997.84 997.88 998.22 998.52 999.44 1000.00 1000.37 1001.15 1001.29 1002.08 1002.69 1003.31 1003.42 1003.44 1003.89 1003.76 1003.93 1004.11 1004.20 1004.45 1004.41 1004.24 1004.42 1005.01 1005.28 1005.65 1005.91 1006.27 1006.82 1007.50 1007.94 1008.66 1009.11 1009.81 1010.17 1010.62 1011.02 1011.42 1011.53 1011.73
997.15 996.72 997.86 998.64 999.02 999.32 999.43 1000.13 1000.99 1001.41 1001.44 1001.44 1002.09 1002.66 1003.12 1003.38 1003.58 1003.58 1003.37 1003.07 1002.97 1002.96 1003.65 1004.22 1004.41 1004.61 1004.93 1005.18 1005.59 1005.99 1006.34 1006.86 1007.60 1008.24 1008.83 1009.29 1009.80 1009.99 1010.47 1010.87 1011.16 1011.34 1011.54
997.39 997.76 998.26 998.65 998.76 998.82 999.48 999.75 1001.04 1001.50 1001.61 1002.22 1002.39 1002.29 1001.92 1002.16 1002.49 1002.61 1002.63 1003.04 1003.65 1003.55 1003.90 1004.28 1004.60 1004.68 1005.29 1005.70 1006.04 1006.37 1006.70 1007.05 1007.79 1008.53 1008.98 1009.29 1009.65 1010.31 1010.44 1010.54 1010.91 1011.16 1011.54
998.88 999.27 999.53 999.48 999.77 1000.03 1000.33 1000.33 1000.93 1001.85 1002.37 1002.57 1002.51 1002.13 1001.66 1002.00 1002.43 1002.58 1002.90 1003.09 1003.15 1003.38 1003.91 1004.44 1004.93 1005.27 1005.68 1006.03 1006.29 1006.69 1007.80 1008.14 1008.43 1008.77 1009.31 1009.56 1009.56 1010.10 1010.06 1010.34 1010.69 1011.17 1011.43
1000.21 1000.46 1000.93 1001.00 1000.90 1001.56 1002.13 1002.44 1002.83 1002.68 1002.81 1003.22 1003.12 1003.33 1002.68 1002.29 1002.37 1002.72 1003.06 1003.36 1003.44 1003.52 1003.94 1004.36 1004.78 1005.29 1005.86 1006.29 1006.62 1007.85 1008.74 1009.01 1009.09 1009.39 1009.30 1009.52 1009.69 1009.89 1010.18 1010.44 1010.73 1011.05 1011.40
Thickness
5846 5843 5838 5835 5830 5825 5823 5823 5821 5820 5818 5815 5812 5807 5804 5800 5797 5794 5794 5795 5788 5785 5783 5780 5774 5774 5773 5771 5767 5763 5759 5757 5749 5753 5749 5744 5735 5732 5731 5724 5720 5714 5710
5853 5848 5845 5842 5838 5834 5832 5829 5826 5823 5821 5817 5814 5810 5808 5806 5802 5798 5796 5798 5793 5788 5784 5781 5776 5774 5770 5769 5766 5759 5757 5756 5750 5742 5747 5741 5734 5734 5727 5724 5721 5715 5710
5859 5854 5849 5847 5844 5842 5839 5835 5834 5830 5826 5821 5818 5815 5811 5810 5808 5806 5804 5801 5799 5792 5788 5784 5779 5774 5768 5768 5762 5760 5757 5750 5743 5740 5742 5741 5737 5731 5725 5717 5711 5711 5705
5868 5861 5859 5856 5854 5851 5845 5841 5839 5835 5830 5826 5823 5820 5818 5815 5813 5811 5807 5804 5802 5798 5792 5789 5783 5778 5770 5765 5761 5758 5755 5750 5745 5739 5736 5733 5729 5725 5717 5714 5712 5705 5707
5874 5870 5869 5863 5858 5852 5848 5845 5842 5840 5837 5835 5831 5827 5825 5822 5820 5817 5814 5811 5808 5801 5796 5794 5788 5782 5775 5773 5768 5760 5755 5749 5753 5744 5735 5731 5723 5714 5708 5710 5705 5702 5698
5881 5879 5875 5867 5861 5857 5852 5847 5844 5842 5840 5837 5836 5834 5831 5832 5832 5824 5821 5817 5813 5804 5797 5795 5789 5781 5776 5768 5762 5759 5751 5742 5737 5744 5739 5730 5721 5713 5706 5703 5698 5692 5687
5880 5878 5874 5868 5863 5859 5854 5849 5849 5847 5842 5841 5840 5839 5838 5836 5833 5827 5820 5816 5813 5811 5802 5797 5790 5785 5772 5764 5753 5744 5743 5746 5741 5741 5736 5724 5718 5714 5702 5696 5688 5683 5679
5878 5876 5875 5870 5865 5860 5856 5857 5855 5851 5849 5847 5846 5843 5839 5843 5836 5829 5821 5814 5814 5809 5801 5795 5790 5785 5779 5768 5761 5761 5757 5743 5736 5729 5735 5731 5719 5711 5701 5693 5685 5678 5673
5878 5881 5881 5875 5868 5865 5862 5863 5856 5847 5844 5839 5837 5836 5833 5829 5822 5815 5808 5810 5808 5805 5800 5799 5788 5781 5779 5767 5762 5753 5746 5745 5737 5724 5719 5721 5715 5702 5697 5687 5680 5671 5665
5885 5888 5881 5878 5872 5869 5867 5858 5855 5851 5846 5844 5840 5839 5836 5828 5821 5809 5798 5791 5784 5772 5781 5795 5797 5789 5778 5772 5753 5740 5736 5728 5716 5720 5710 5707 5704 5693 5688 5683 5678 5667 5665
5887 5885 5879 5877 5873 5868 5863 5860 5854 5850 5846 5841 5839 5836 5833 5830 5829 5821 5805 5791 5785 5774 5777 5790 5792 5780 5770 5758 5743 5731 5725 5726 5711 5707 5702 5702 5702 5696 5687 5676 5672 5673 5666
5885 5883 5880 5877 5873 5870 5863 5858 5853 5848 5843 5842 5840 5838 5838 5843 5844 5843 5827 5801 5794 5778 5782 5783 5777 5767 5757 5728 5711 5723 5703 5708 5703 5697 5693 5688 5698 5691 5689 5677 5669 5664 5657
5879 5878 5877 5874 5870 5867 5861 5853 5849 5845 5845 5840 5836 5837 5835 5831 5840 5822 5817 5798 5789 5776 5780 5774 5765 5753 5739 5724 5718 5699 5688 5692 5685 5686 5687 5688 5688 5690 5686 5667 5662 5654 5644
5871 5870 5869 5867 5864 5861 5858 5853 5850 5848 5843 5841 5839 5835 5831 5834 5826 5820 5808 5791 5775 5768 5762 5759 5756 5745 5739 5732 5719 5712 5690 5671 5673 5686 5680 5687 5685 5682 5671 5664 5661 5649 5642
5868 5867 5864 5864 5858 5855 5851 5848 5851 5850 5845 5840 5836 5833 5828 5824 5816 5811 5800 5783 5771 5763 5752 5745 5741 5736 5724 5719 5721 5718 5717 5690 5672 5681 5683 5681 5678 5674 5668 5667 5659 5647 5638
5858 5857 5858 5859 5852 5848 5839 5829 5815 5815 5817 5817 5822 5822 5815 5806 5797 5790 5784 5776 5765 5751 5742 5734 5725 5724 5718 5710 5706 5697 5693 5688 5678 5680 5679 5677 5675 5668 5665 5659 5648 5639 5637
5845 5841 5841 5838 5831 5828 5826 5822 5810 5798 5796 5793 5788 5787 5788 5781 5773 5766 5762 5755 5746 5736 5730 5719 5716 5707 5698 5693 5686 5684 5683 5677 5678 5674 5675 5675 5673 5668 5658 5648 5638 5637 5630
5822 5820 5827 5822 5822 5820 5814 5808 5801 5793 5786 5778 5765 5761 5756 5751 5747 5741 5736 5729 5722 5712 5719 5710 5695 5686 5676 5670 5663 5663 5673 5683 5674 5672 5670 5667 5665 5663 5649 5643 5637 5630 5627
5804 5805 5805 5802 5801 5795 5792 5786 5778 5771 5765 5757 5753 5748 5740 5729 5723 5721 5721 5722 5707 5695 5692 5682 5674 5667 5662 5662 5665 5672 5676 5679 5672 5669 5663 5660 5656 5655 5646 5641 5633 5620 5619
5781 5778 5782 5778 5773 5770 5768 5764 5756 5751 5748 5742 5741 5743 5729 5722 5713 5705 5702 5698 5684 5679 5680 5676 5672 5671 5668 5668 5673 5673 5673 5666 5660 5658 5657 5656 5655 5650 5642 5632 5629 5622 5615
5764 5761 5758 5759 5756 5754 5752 5746 5744 5746 5742 5733 5729 5720 5715 5718 5708 5695 5696 5688 5683 5679 5674 5674 5676 5675 5674 5673 5671 5666 5663 5657 5657 5655 5654 5650 5646 5642 5635 5628 5625 5620 5620
5748 5747 5745 5746 5748 5745 5741 5732 5726 5723 5715 5714 5710 5704 5695 5699 5698 5690 5688 5685 5681 5681 5676 5675 5676 5676 5672 5670 5666 5663 5660 5655 5651 5648 5644 5642 5636 5633 5627 5623 5619 5618 5617
5733 5738 5731 5724 5721 5716 5717 5710 5699 5697 5700 5702 5697 5692 5688 5686 5682 5679 5680 5683 5684 5685 5679 5672 5669 5666 5665 5664 5660 5656 5651 5647 5643 5639 5634 5631 5627 5626 5621 5616 5614 5612 5610
5718 5716 5712 5709 5708 5707 5703 5701 5689 5687 5689 5683 5683 5685 5690 5687 5681 5679 5677 5674 5668 5670 5666 5663 5660 5659 5653 5649 5645 5643 5640 5639 5633 5629 5626 5624 5620 5615 5614 5612 5609 5606 5602
5690 5686 5684 5684 5683 5682 5681 5683 5681 5674 5671 5670 5672 5675 5680 5677 5671 5668 5666 5664 5664 5662 5657 5652 5646 5644 5640 5636 5634 5631 5625 5623 5620 5618 5613 5613 5614 5609 5610 5607 5602 5597 5596
5666 5665 5660 5660 5662 5658 5653 5652 5651 5656 5656 5653 5656 5655 5660 5664 5661 5657 5654 5651 5650 5651 5647 5643 5640 5634 5629 5624 5623 5615 5610 5609 5607 5606 5606 5605 5603 5602 5600 5597 5594 5591 5588